Location: Seattle
(47.6064°N, 122.3308°W)
Time: 15:57:29
(UTC-08:00)

S-56A Canister/Altair - Pass Details

Date: 11 October 2022
Orbit: 638 x 2494 km, 38.9° (Epoch: 03 December)

Event Time Altitude Azimuth Distance (km) Brightness Sun altitude
Rises 23:09:59 0° 228° (SW) 6,139 12.1 -43.9°
Reaches altitude 10° 23:14:15 10° 223° (SW) 5,151 11.6 -44.4°
Enters shadow 23:16:10 15° 220° (SW) 4,722 11.3 -44.6°
